Flag for USA

Past Weather in Trenton, New Jersey, USA — Yesterday and Last 2 Weeks

Now
74 °F

Mostly cloudy.


Feels Like: 73 °F
Forecast: 86 / 71 °F
Wind: No wind

Location: Mercer County Airport

Current Time: Jul 4, 2020 at 10:11:16 am

Latest Report: Jul 4, 2020 at 9:31 am


Visibility: 10 mi

Pressure: 29.93 "Hg

Humidity: 85%

Dew Point: 69 °F

Location of TrentonLocation

Past Weather in Trenton — Graph

°F

Trenton Temperature Yesterday

Maximum temperature yesterday: 93 °F (at 1:53 pm)
Minimum temperature yesterday: 72 °F (at 10:53 pm)
Average temperature yesterday: 81 °F

High & Low Weather Summary for the Past Weeks

 TemperatureHumidityPressure
High94 °F (Jul 2, 4:53 pm)100% (Jun 21, 5:53 am)30.15 "Hg (Jun 21, 5:53 am)
Low63 °F (Jun 27, 3:53 am)32% (Jun 26, 2:53 pm)29.61 "Hg (Jun 24, 2:53 am)
Average76 °F71%29.86 "Hg
* Reported Jun 19 7:30 am — Jul 4 7:53 am, Trenton. Weather by CustomWeather, © 2020

Note: Actual official high and low records may vary slightly from our data, if they occured in-between our weather recording intervals... More about our weather records

Trenton Weather History for the Previous 24 Hours

Scroll right to see more
 ConditionsComfort  
Time TempWeatherWind HumidityBarometerVisibility
7:53 am
Sat, Jul 4
71 °FFog.5 mph93%29.89 "Hg6 mi
7:33 am71 °FFog.5 mph93%29.91 "Hg6 mi
7:04 am70 °FFog.7 mph97%29.91 "Hg4 mi
6:53 am70 °FFog.6 mph97%29.88 "Hg2 mi
6:30 am71 °FFog.6 mph96%29.90 "Hg5 mi
6:23 am71 °FFog.5 mph96%29.90 "Hg5 mi
5:53 am72 °FFog.3 mph93%29.87 "Hg5 mi
4:53 am71 °FOvercast.3 mph96%29.85 "Hg7 mi
4:24 am71 °FFog.5 mph96%29.87 "Hg6 mi
3:53 am71 °FPassing clouds.5 mph93%29.85 "Hg7 mi
3:38 am71 °FPassing clouds.3 mph93%29.88 "Hg7 mi
3:22 am71 °FPassing clouds.No wind96%29.88 "Hg7 mi
2:53 am72 °FLow clouds.6 mph93%29.86 "Hg7 mi
2:29 am72 °FFog.5 mph93%29.88 "Hg6 mi
1:53 am72 °FFog.5 mph97%29.85 "Hg6 mi
1:43 am72 °FFog.3 mph97%29.88 "Hg6 mi
12:53 am72 °FLow clouds.7 mph93%29.86 "Hg7 mi
12:30 am72 °FPassing clouds.7 mph93%29.88 "Hg7 mi
12:23 am72 °FPassing clouds.6 mph97%29.88 "Hg7 mi
11:53 pm
Fri, Jul 3
72 °FPassing clouds.5 mph93%29.84 "Hg9 mi
10:53 pm72 °FClear.6 mph93%29.84 "Hg10 mi
9:53 pm73 °FLight rain. Fog.7 mph94%29.85 "Hg6 mi
9:16 pm73 °FThundershowers. Fog.7 mph88%29.88 "Hg5 mi
8:53 pm73 °FThunderstorms. Overcast.16 mph88%29.83 "Hg7 mi
7:53 pm87 °FSunny.No wind46%29.78 "Hg10 mi
6:53 pm90 °FSunny.5 mph42%29.77 "Hg10 mi
5:53 pm91 °FSunny.7 mph41%29.77 "Hg10 mi
4:53 pm91 °FSunny.10 mph41%29.79 "Hg10 mi
3:53 pm91 °FPartly sunny.10 mph39%29.80 "Hg10 mi
2:53 pm90 °FSunny.6 mph45%29.81 "Hg10 mi
1:53 pm93 °FScattered clouds.10 mph41%29.81 "Hg10 mi
12:53 pm92 °FSunny.10 mph41%29.83 "Hg10 mi
11:53 am89 °FSunny.8 mph45%29.83 "Hg10 mi
10:53 am84 °FSunny.6 mph53%29.84 "Hg10 mi
Weather by CustomWeather, © 2020

See weather overview